Zurück zum Katalog

STARLINK-36720

AktivKommunikationSSO
NORAD 67655·PAYLOAD·🇺🇸 United States

Gestartet Feb 2, 2026 von Vandenberg Space Force Base

Loading…

Nächste Überflüge (nächste 24 Stunden)

TLE

AktuellSource: CelesTrak SupGP

Epoche: Sep 14, 2026, 21:46 UTC

1 67655C 26022H   26257.90743056  .00023201  00000+0  72039-3 0  2575
2 67655  97.2840 289.5720 0001009 102.5030 177.6071 15.33420407    14

Verfolge STARLINK-36720 in Echtzeit mit AllMySat

Download on the App Store